Tracking 17844 objects as of 27-August-2016
HD Live streaming from Space Station
objects crossing your sky now

COSMOS 2251 DEB

Track COSMOS 2251 DEB now!
10-day predictions


NORAD ID: 35448
Int'l Code: 1993-036AKS
Perigee: 756.3 km
Apogee: 775.4 km
Inclination: 73.9 °
Period: 100.0 minutes
Semi major axis: 7136 km
RCS: 0.0138 m2 (small)
Launch date: June 16, 1993
Source: Commonwealth of Independent States (former USSR) (CIS)
Launch site: PLESETSK MISSILE AND SPACE COMPLEX (PKMTR)

Note: This is SATELLITE DEBRIS
Your satellite tracking list
Your tracking list is empty





NASA's NSSDC Master Catalog

Two Line Element Set (TLE):
1 35448U 93036AKS 16239.55934569  .00000379  00000-0  12905-3 0  9991
2 35448  73.9108 326.0021 0013398 132.1725 228.0569 14.39946398384118
Source of the keplerian elements: AFSPC

N2YO: 510